Погода в Бахте

Погода в Бахте : погода сейчас, прогноз погоды и архив. Всё, что Вы хотите узнать о погоде в Бахте!

Поиск расширенной информации на нашем сайте:

Другие новости

Новости СМИ2

Главная страница сайта

Новости сайта

02.10.2013

Напоминаем, что на нашем новом сайте вы можете получить высокодетализированные прогнозы погоды по пунктам России, СНГ и мира (включающие важные для авиации метеовеличины, такие как направление и скорость ветра, видимость, явления погоды, количество и форма облачности, нижняя и верхняя граница облачности), а также ознакомиться с разнообразными материалами по авиационной метеорологии и подборкой полезных ссылок на эту тему.

Сайт Метеоцентр.Азия посвящён разработке технологий оптимизации авиаметеорологического обслуживания, включая проектирование и перспективное создание нескольких автоматизированных авиаметеорологических систем:
- система выпуска высокодетальных прогностических карт явлений погоды для нижнего воздушного пространства по России и ближнему зарубежью;
- система верификации прогнозов TAF (выпускаемых синоптиками официальных АМСГ РФ и ближнего зарубежья) и AUTOTAF (выпускаемых сайтом Метеоцентр.Азия) - выявление ошибок, онлайн-сопоставление с фактической погодой METAR, автоматическое внесение коррективов в прогнозы при резком отклонении фактической погоды от прогноза, подсчёт оправдываемости прогнозов по элементам и в целом;
- система обработки, анализа и отображения авиаметеорологической информации для применения провайдерами метеорологической информации.


Погода в Бахте - сегодня

Время (UTC), дата Ветер
(°,м/с) 
Видим.   Явления Облачность Т
(°С)
Тd
(°С)
f(%) Тe
(°С)
Pmin
(гПа)
dP
(гПа)
Po
(мм)
O2
(г/м3)
Тmin Tmax R s Состояние
почвы
12 21.04.17 тихо ()   20000 м    3/3 600 м 
[Cu hum]
-2.5 -11.8 49 -3  1024.4  0.9  764  312    -2.5  0.0     
15 21.04.17 тихо ()   н/о    1/0 верхняя 
[Ci fib]
-5.3 -12.8 56 -5  1024.7  0.2  764  315           
18 21.04.17 тихо ()   н/о    ясно 
-9.3 -13.8 70 -9  1024.9  0.1  764  320           
21 21.04.17 тихо ()   н/о    ясно 
-13.1 -16.6 75 -13  1025.7  0.6  764  325           
00 22.04.17 тихо ()   20000 м    3/0 верхняя 
[Ci sp]
-14.4 -15.7 90 -14  1026.2  0.5  765  327  -14.4      46  равномерный
мокрый или
старый снег
100% 
03 22.04.17 180 (Ю) 20000 м    10/10 2000 м 
[As trans]
-7.5 -11.4 74 -9  1025.2  -0.7  764  318           
06 22.04.17 180 (Ю) 20000 м    9/9 600 м 
[Sc]
-1.9 -9.4 56 -3  1023.8  -1.3  763  311           
09 22.04.17 180 (Ю) 20000 м    9/9 600 м 
[Sc]
-0.9 -7.8 59 -2  1021.9  -1.9  762  309           
12 22.04.17 180 (Ю) 20000 м    10/10 600 м 
[Sc]
+1.4 -6.9 54 +1  1020.1  -1.7  760  306    +1.4       
15 22.04.17 140 (ЮВ) н/о    10/10 2000 м 
[Ac As]
+2.3 -7.2 49 +2  1018.6  -1.4  759  304           
18 22.04.17 тихо ()   н/о    10/10 2000 м 
[Ns]
+1.2 -8.5 48 +1  1018.3  -0.4  759  305           
21 22.04.17 тихо ()   н/о    10/4 600 м средняя 
[Sc|As trans]
+0.9 -9.5 46 +1  1018.2  -0.1  759  306           
00 23.04.17 140 (ЮВ) 20000 м    10/0 средняя 
[Ac As]
+1.4 -8.7 47 +1  1018  -0.2  759  305  +0.9      46  равномерный
мокрый или
старый снег
100% 
03 23.04.17 110 (В) 20000 м    10/0 средняя 
[As trans]
+1.7 -6.4 55 +1  1016.6  -1.4  758  304           
06 23.04.17 180 (Ю) 20000 м    10/10 2000 м 
[As trans]
+5.3 -4.7 48 +4  1017.2  0.7  758  300           
09 23.04.17 180 (Ю) 20000 м    4/0 верхняя 
[Ci sp]
+9.4 -7.7 29 +9  1017.1  758  296           
12 23.04.17 тихо ()   20000 м    8/8 600 м 
[Sc]
+8.8 -9 27 +9  1016.4  -0.7  758  297    +9.4       
15 23.04.17 тихо ()   н/о    8/8 600 м 
[Sc]
+5.8 -6 42 +6  1017.7  1.2  759  300           
18 23.04.17 тихо ()   н/о    6/6 600 м 
[Sc]
+2.5 -7.4 48 +3  1017.8  0.1  759  304           
21 23.04.17 тихо ()   н/о    9/9 600 м 
[Sc]
+1 -7 55 +1  1017.9  759  305           
00 24.04.17 тихо ()   20000 м    10/10 600 м 
[Sc]
-0.5 -6.4 64 -1  1017.3  -0.6  758  307  -0.5      44  равномерный
мокрый или
старый снег
100% 
03 24.04.17 тихо ()   20000 м    9/9 600 м 
[Sc]
+2.9 -5.1 56 +3  1016.6  -0.6  758  303           
06 24.04.17 180 (Ю) 20000 м    9/9 600 м 
[Sc]
+4.6 -3.8 54 +4  1016.3  -0.3  758  301           
09 24.04.17 180 (Ю) 20000 м    9/9 600 м кучево-дожд. 
[Cb cap]
+7 -2.6 50 +7  1015.7  -0.5  757  298           
12 24.04.17 180 (Ю) 20000 м    10/10 600 м кучево-дожд. 
[Cb cap]
+5.8 -1.8 58 +6  1016.5  0.7  758  299    +7       
Время (UTC), дата Ветер
(°,м/с) 
Видим.   Явления Облачность Т
(°С)
Тd
(°С)
f(%) Тe
(°С)
Pmin
(гПа)
dP
(гПа)
Po
(мм)
O2
(г/м3)
Тmin Tmax R s Состояние
почвы

Для получения пояснительной информации подведите курсор к названию столбца.

ПОГОДА в Бахте - архив

Всё, что Вы хотите узнать о погоде в Бахте - удобно и подробно!

Выберите нужную дату (начиная с 1 января 2015* года) и нажмите кнопку "Найти".
Будут отображены архивные сводки погоды по пункту Бахта, начиная с указанной даты.


Отображать данные в формате CSV (для использования в таблицах Excel)


Внимание! Наш архив погоды предназначен исключительно для личного некоммерческого использования в познавательных целях. Если Вам необходимы официальные справки о состоянии погоды (для производственных, юридических, коммерческих и т.п. целей), обращайтесь в органы Росгидромета.

*Примечание: данная дата относится к архиву по метеостанциям СССР (Россия, СНГ, Балтия).
Архив по метеостанциям Зарубежной Европы и Азии (кроме Китая) хранится 10 дней, по другим регионам земного шара (Китай, Африка, Америка, Австралия, Океания) - 1 день.

Бахта - район местоположения метеостанции


Название, широта, долгота, высота метеостанции:
Бахта 62.3°ш. 89.2°д. 58 м над ур. моря [Российская Федерация]

Дополнительная информация

В oтличие oт бoльшинства пoгoдных сайтoв мы публикуем пoдрoбную метеoинфoрмацию в детальнoм прoфессиoнальнoм фoрмате.

Характеристики температуры и влажнoсти вoздуха измеряются на высoте 2 м в тени вдали oт зданий и деревьев.
Скoрoсть ветра измеряется на высoте 10 м (на урoвне рoста челoвека скoрoсть ветра ниже в 1.5-2 раза). Если метеoстанция нахoдится в гoрoде или в лесу, тo скoрoсть ветра занижена на 2-4 м/с пo сравнению с oткрытым местoм. Скoрoсть ветра над акватoриями крупных рек и oзёр, а также на вершинах хoлмoв на 2-5 м/с выше, чем в oбычных услoвиях.
Атмoсфернoе давление в разных тoчках местнoсти мoжет значительнo oтличаться oт давления на метеoстанции, в зависимoсти oт услoвий рельефа (при пoдъёме на 10 м давление пoнижается примернo на 1 мм рт.ст.).